Flag for Switzerland Weather past 2 weeks in Altdorf, Uri, Switzerland

Now
42 °F

Quite cool.


Feels Like: 40 °F
Forecast: 39 / 47 °F
Wind: 3 mph from Southeast

Location: Altdorf

Current Time: Mar 1, 2015 at 8:45:06 PM

Latest Report: Mar 1, 2015 at 8:00 PM


Visibility: N/A

Pressure: 29.94 "Hg

Humidity: 93%

Dew point: 40 °F

Location of AltdorfLocation

Historic Weather in Altdorf — Graph

°F

Altdorf temperature yesterday

Maximum temperature yesterday: 41 °F (at 2:00 PM)
Minimum temperature yesterday: 31 °F (at 11:00 PM)
Average temperature yesterday: 38 °F

Past Weeks' High & Low Weather Summary

 TemperatureHumidityPressure
High52 °F (Feb 21, 12:00 PM)96% (Feb 16, 1:00 AM)30.70 "Hg (Feb 16, 1:00 AM)
Low25 °F (Feb 20, 6:00 AM)18% (Feb 20, 8:00 PM)29.47 "Hg (Feb 21, 12:00 PM)
Average37 °F77%30.07 "Hg
* Reported Feb 14 7:00 PM — Mar 1 7:00 PM, Altdorf, Weather by CustomWeather, © 2015

Note: Actual official high and low records may vary slightly from our data, if they occured in-between our weather recording intervals... More about our weather records

Advertising

Altdorf weather history for previous 24 hours

 ConditionsComfort  
Time TempWeatherWind HumidityBarometerVisibility
7:00 PM
Sun, Mar 1
42 °FLight rain. Overcast.5 mph92%29.93 "Hg11 mi
6:00 PM42 °FQuite cool.2 mph89%29.94 "HgN/A
5:00 PM43 °FQuite cool.2 mph87%29.91 "HgN/A
4:00 PM43 °FRain. Overcast.3 mph85%29.91 "Hg14 mi
3:00 PM43 °FQuite cool.3 mph89%29.91 "HgN/A
2:00 PM42 °FQuite cool.5 mph88%29.95 "HgN/A
1:00 PM43 °FOvercast.6 mph84%29.96 "Hg14 mi
12:00 PM42 °FQuite cool.5 mph84%29.96 "HgN/A
11:00 AM40 °FChilly.No wind87%29.99 "HgN/A
10:00 AM38 °FRain. Overcast.1 mph86%30.00 "Hg12 mi
9:00 AM36 °FChilly.1 mph86%30.01 "HgN/A
8:00 AM35 °FChilly.3 mph86%30.03 "HgN/A
7:00 AM34 °FOvercast.2 mph90%30.02 "Hg12 mi
6:00 AM34 °FChilly.3 mph88%30.01 "HgN/A
5:00 AM33 °FChilly.2 mph88%30.04 "HgN/A
3:00 AM31 °FChilly.2 mph92%30.04 "HgN/A
2:00 AM30 °FChilly.3 mph92%30.08 "HgN/A
1:00 AM31 °FClear.2 mph90%30.09 "Hg12 mi
12:00 AM33 °FChilly.1 mph87%30.09 "HgN/A
11:00 PM
Sat, Feb 28
31 °FChilly.3 mph88%30.12 "HgN/A
10:00 PM34 °FClear.2 mph86%30.14 "Hg12 mi
9:00 PM36 °FChilly.1 mph86%30.14 "HgN/A
8:00 PM39 °FChilly.3 mph81%30.12 "HgN/A
Weather by CustomWeather, © 2015

See weather overviewHow to use our weather pages